Regional Weather Roundup
Issued by NWS

Home | Current Version | Previous Version | Graphics & Text | Print | Product List | Glossary On
Versions: 1 2 3 4 5 6 7 8 9 10 11 12 13 14 15 16 17 18 19 20 21 22 23 24 25 26 27 28 29 30 31 32 33 34 35 36 37 38 39 40 41 42 43 44 45 46 47 48 49 50
000
ASUS43 KDMX 200707
RWRIA

WEATHER ROUNDUP FOR IOWA
NATIONAL WEATHER SERVICE DES MOINES IA
200 AM CDT MON APR 20 2015

NOTE: "FAIR" INDICATES FEW OR NO CLOUDS BELOW 12,000 FEET WITH NO
SIGNIFICANT WEATHER AND/OR OBSTRUCTIONS TO VISIBILITY.

* - THESE STATIONS ARE NOT NWS STATIONS...THUS NOT UNDER NWS
QUALITY CONTROL.  THEY ALSO DO NOT REPORT WEATHER SUCH
AS PRECIPITATION OR FOG.

IAZ001>003-012>014-020>022-031>034-043>046-200800-
   NORTHWEST IOWA

CITY           SKY/WX    TMP DP  RH WIND       PRES   REMARKS
CARROLL *      CLEAR     43  39  87 NW18G26   29.65F
CHEROKEE *     CLEAR     41  37  87 NW12G21   29.69F
DENISON *      CLEAR     43  39  87 NW18G28   29.68S
LE MARS *      CLEAR     41  37  87 NW12      29.75S
ORANGE CITY *  PTCLDY    39  34  81 NW14G22   29.71F WCI  31
SHELDON *      CLEAR     39  37  93 NW15G22   29.69S WCI  31
SIOUX CITY     CLEAR     44  35  70 NW17      29.74F
SPENCER        MOCLDY    43  37  79 NW24G32   29.66F
STORM LAKE *   CLEAR     41  37  87 NW18G28   29.67F
$$

IAZ055>058-069>071-079>083-090>094-200800-
   SOUTHWEST IOWA

CITY           SKY/WX    TMP DP  RH WIND       PRES   REMARKS
ATLANTIC *     CLEAR     43  39  87 NW14G21   29.69S
AUDUBON *      CLEAR     43  37  81 NW12G18   29.67F
CLARINDA *     CLEAR     46  37  71 NW16G23   29.73R
COUNCIL BLFS * CLEAR     45  39  81 NW18G25   29.73S
CRESTON *      CLEAR     43  39  87 NW17      29.66R
HARLAN  *        N/A     43  43 100 NW21      29.73S
LAMONI         CLOUDY    48  39  71 NW18G30   29.63R
RED OAK *      CLEAR     45  37  76 NW15      29.72R
SHENANDOAH *   CLEAR     46  37  71 NW13G20   29.74R
$$

IAZ047>049-059>061-072>074-084-200800-
   CENTRAL IOWA

CITY           SKY/WX    TMP DP  RH WIND       PRES   REMARKS
AMES           CLOUDY    45  38  76 NW21G35   29.58R
ANKENY *       MOCLDY    46  39  76 NW22G35   29.57F
CHARITON *     CLOUDY    48  43  81 NW17G25   29.58F
DES MOINES     CLOUDY    48  40  73 NW22G31   29.58S
GRINNELL*      CLOUDY    46  43  87 NW17G23   29.53S
KNOXVILLE *    CLOUDY    48  41  76 NW20G29   29.55S
MARSHALLTOWN   CLOUDY    46  42  86 NW23G32   29.52F
PELLA *        CLOUDY    46  46 100 NW15G24   29.56S
PERRY *          N/A     45  39  81 NW20G26   29.63R
$$

IAZ004>006-015-016-023>025-035-036-200800-
   NORTH CENTRAL IOWA

CITY           SKY/WX    TMP DP  RH WIND       PRES   REMARKS
ALGONA *       MOCLDY    43  39  87 NW22G30   29.61F
CLARION *      PTCLDY    43  41  93 NW25G35   29.57F
ESTHERVILLE    CLOUDY    42  38  85 NW20      29.63F
FORT DODGE *   CLOUDY    43  36  75 NW12G20   29.61F
MASON CITY     CLOUDY    43  38  82 NW30G39   29.55S
FOREST CITY *  CLOUDY    41  36  81 NW18G32   29.56F
IOWA FALLS *   CLOUDY    45  39  81 NW25G36   29.55F
$$

IAZ007>011-017>019-026>030-037>042-050>054-066-200800-
   NORTHEAST IOWA

CITY           SKY/WX    TMP DP  RH WIND       PRES   REMARKS
CEDAR RAPIDS   LGT RAIN  45  45 100 NW26G35   29.43F
CHARLES CITY * RAIN      45  45 100 NW21G28   29.49F
CLINTON *      CLOUDY    52  48  87 NW21      29.33S
DECORAH *      RAIN      45  45 100 NW16G24   29.40F
DUBUQUE        CLOUDY    50  48  93 NW16      29.32F
MONTICELLO *   RAIN      46  46 100 NW22G29   29.37F
OELWEIN *      RAIN      45  45 100 NW28G33   29.44F
WATERLOO       LGT RAIN  45  42  89 NW22G28   29.48S
$$

IAZ064-065-067-068-078-200800-
   EAST CENTRAL IOWA

CITY           SKY/WX    TMP DP  RH WIND       PRES   REMARKS
DAVENPORT      CLOUDY    49  46  90 W23G35    29.35S
IOWA CITY      LGT RAIN  47  44  90 NW21G32   29.44F
MT. PLEASANT * LGT RAIN  46  43  87 W17G26    29.47S
MUSCATINE *    LGT RAIN  48  46  93 NW23G31   29.42S
QUAD CITIES    CLOUDY    51  46  83 W22G35    29.35S
$$

IAZ062-063-075>077-085>089-095>099-200800-
   SOUTHEAST IOWA

CITY           SKY/WX    TMP DP  RH WIND       PRES   REMARKS
BURLINGTON     CLOUDY    48  47  96 NW17G25   29.44S
FAIRFIELD *    CLOUDY    46  41  81 NW18G30   29.50S
FORT MADISON * CLOUDY    46  45  93 W23G29    29.47S
KEOKUK *       CLOUDY    48  45  87 NW17G24   29.49S
OSKALOOSA *    CLOUDY    46  43  87 NW21      29.53S
CENTERVILLE *  PTCLDY    46  46 100 W13       29.59F
OTTUMWA        CLOUDY    47  42  83 NW17G26   29.53S
WASHINGTON *   CLOUDY    48  48 100 NW22G31   29.46F
$$

ABBREVIATIONS USED IN REMARKS
   TC - TEMPERATURES IN CELSIUS
  WCI - WIND CHILL INDEX
   HX - HEAT INDEX
  VSB - VISIBILITY
$$




USA.gov is the U.S. government's official web portal to all federal, state and local government web resources and services.